Location: Saratoga Springs
(43.0831°N, 73.7850°W)
Time: 20:59:47
(UTC-04:00)

SR - Pass Details

Date: 17 April 2024
Orbit: 579 x 859 km, 66.7° (Epoch: 29 May)

Event Time Altitude Azimuth Distance (km) Brightness Sun altitude
Exits shadow 05:05:48 10° 277° (W) 2,354 ? -11.6°
Maximum altitude 05:09:22 18° 319° (NW) 1,825 ? -11.0°
Drops below altitude 10° 05:12:48 10° 1° (N) 2,239 ? -10.5°
Sets 05:15:51 0° 21° (NNE) 3,103 ? -10.0°
